Regional Weather Roundup
Issued by NWS

Home | Current Version | Previous Version | Graphics & Text | Print | Product List | Glossary On
Versions: 1 2 3 4 5 6 7 8 9 10 11 12 13 14 15 16 17 18 19 20 21 22 23 24 25 26 27 28 29 30 31 32 33 34 35 36 37 38 39 40 41 42 43 44 45 46 47 48 49 50
660
ASUS44 KLIX 250510
RWRLA
LOUISIANA WEATHER ROUNDUP
NATIONAL WEATHER SERVICE NEW ORLEANS LA
1200 AM CDT FRI JUL 25 2014

NOTE: "FAIR" INDICATES FEW OR NO CLOUDS BELOW 12,000 FEET WITH NO
      SIGNIFICANT WEATHER AND/OR OBSTRUCTIONS TO VISIBILITY.
      SKY/WX - SKY CONDITION AND SIGNIFICANT WEATHER.
      TMP - AIR TEMPERATURE.    DP   - DEWPOINT TEMPERATURE.
      RH  - RELATIVE HUMIDITY.  PRES - PRESSURE.
      HX  - HEAT INDEX.         WCI  - WIND CHILL INDEX.

*  THESE STATIONS ARE NOT NWS OR FAA STATIONS AND ARE NOT UNDER
   NWS QUALITY CONTROL.

LAZ040-048-061>063-065-066-069-250600-
SOUTHEAST LOUISIANA

CITY           SKY/WX    TMP DP  RH WIND       PRES   REMARKS
N.O. AUDUBON     N/A     78  76  94 MISG        N/A
N.O. INTL ARPT PTCLDY    78  73  84 W5        29.99S
N.O. LAKEFRONT CLEAR     82  74  76 SW8       30.00R
N.O. DOWNTOWN* FAIR      81  72  74 CALM      30.00S
SLIDELL        CLEAR     77  74  90 CALM      29.98F
BATON ROUGE    CLEAR     75  73  93 CALM      30.00R
BOOTHVILLE     LGT RAIN  82  78  88 SW10      30.00S
BELLE CHASSE   CLEAR     76  72  87 CALM      29.99R
BOGALUSA*      FAIR      78  74  88 CALM      30.00S
GALLIANO*      NOT AVBL
NEW ROADS*     FAIR      77  76  96 CALM      30.01R FOG
GONZALES*      FAIR      76  76 100 CALM      30.00R
HAMMOND*       PTCLDY    77  72  83 CALM      30.00F
HOUMA*         CLEAR     74  71  89 CALM      30.00R FOG
PORT FOURCHON* PTCLDY    82  75  78 SW8       30.02S

$$

LAZ041-044-053-054-250600-
SOUTHWEST LOUISIANA

CITY           SKY/WX    TMP DP  RH WIND       PRES   REMARKS
LAKE CHARLES   CLEAR     79  77  94 CALM      30.00R FOG
LAFAYETTE      CLEAR     78  75  90 CALM      30.01R
PATTERSON      CLEAR     75  73  94 CALM      30.04S
SALT POINT       N/A     82  77  84 CALM      30.00R
NEW IBERIA     CLEAR     78  75  90 CALM      30.01R
CHENAULT AIRPK CLEAR     80  76  87 CALM      30.01R

$$

LAZ027-028-250600-
CENTRAL LOUISIANA

CITY           SKY/WX    TMP DP  RH WIND       PRES   REMARKS
FORT POLK      CLEAR     76  74  93 CALM      30.01S
ALEXANDRIA INT CLEAR     76  74  93 CALM      29.99R
ALEXANDRIA     CLEAR     76  73  91 CALM      30.01R FOG

$$

LAZ001-002-250600-
NORTHWEST LOUISIANA

CITY           SKY/WX    TMP DP  RH WIND       PRES   REMARKS
SHREVEPORT     PTCLDY    74  71  91 CALM      30.01R
BARKSDALE AFB  MOCLDY    74  73  96 CALM      30.01R
DTN SHREVEPORT CLEAR     75  72  90 CALM      30.01R

$$

LAZ014-016-250600-
NORTHEAST LOUISIANA

CITY           SKY/WX    TMP DP  RH WIND       PRES   REMARKS
MONROE         CLEAR     77  72  84 E6        30.04R
TALLULAH       CLEAR     76  72  87 N8        30.03R

$$




USA.gov is the U.S. government's official web portal to all federal, state and local government web resources and services.